GW4780 Weather Reports


time (UTC)temp
C
wind
direction
speed
KPH
gust
KPH
rain 1hr
cm
rain 24hr
cm
rain mn
cm
humidity
%
barometer
mb
20260502130717 20 181 4.8 11.3 0.00 0.00 0.00 51 1014.5
20260502123719 18 325 1.6 6.4 0.00 0.00 0.00 54 1014.7
20260502123003 18 108 1.6 9.7 0.00 0.00 0.00 57 1014.9
20260502122503 18 151 3.2 9.7 0.00 0.00 0.00 58 1015.0
20260502122003 18 171 4.8 12.9 0.00 0.00 0.00 55 1015.0
20260502121504 18 187 4.8 12.9 0.00 0.00 0.00 55 1015.1
20260502121218 18 204 3.2 12.9 0.00 0.00 0.00 55 1015.0
20260502120503 18 231 1.6 6.4 0.00 0.00 0.00 56 1015.2
20260502115504 18 249 1.6 9.7 0.00 0.00 0.00 57 1015.3
20260502115004 18 224 3.2 9.7 0.00 0.00 0.00 56 1015.4
20260502114004 18 272 3.2 8.0 0.00 0.00 0.00 57 1015.6
20260502113503 18 230 3.2 16.1 0.00 0.00 0.00 56 1015.7
20260502113004 18 205 4.8 16.1 0.00 0.00 0.00 55 1015.9
20260502112504 18 220 3.2 12.9 0.00 0.00 0.00 55 1015.9
20260502112004 18 239 3.2 12.9 0.00 0.00 0.00 55 1016.0
20260502111503 18 243 3.2 12.9 0.00 0.00 0.00 56 1015.9
20260502111003 18 251 3.2 14.5 0.00 0.00 0.00 58 1015.8
20260502110503 17 240 3.2 14.5 0.00 0.00 0.00 59 1015.9
20260502110217 17 237 3.2 14.5 0.00 0.00 0.00 57 1015.9
20260502105504 17 224 4.8 12.9 0.00 0.00 0.00 58 1015.8
20260502105004 17 219 3.2 11.3 0.00 0.00 0.00 59 1015.8
20260502104503 17 209 3.2 11.3 0.00 0.00 0.00 60 1015.9
20260502104003 17 229 3.2 11.3 0.00 0.00 0.00 59 1016.0
20260502103718 17 261 3.2 8.0 0.00 0.00 0.00 60 1016.0
20260502103003 17 250 3.2 8.0 0.00 0.00 0.00 62 1016.0
20260502102718 17 254 3.2 8.0 0.00 0.00 0.00 63 1016.1
20260502102219 17 249 3.2 9.7 0.00 0.00 0.00 62 1016.1
20260502101503 16 222 3.2 9.7 0.00 0.00 0.00 63 1016.1
20260502101003 16 250 3.2 9.7 0.00 0.00 0.00 63 1016.2
20260502100503 16 209 4.8 12.9 0.00 0.00 0.00 64 1016.3
20260502091504 15 227 1.6 6.4 0.00 0.00 0.00 69 1016.5
20260502091003 15 211 1.6 8.0 0.00 0.00 0.00 68 1016.6
20260502090504 15 213 3.2 9.7 0.00 0.00 0.00 69 1016.5
20260502071503 11 242 1.6 6.4 0.00 0.00 0.00 84 1016.8
20260502071003 11 239 1.6 6.4 0.00 0.00 0.00 84 1016.8
20260502070504 11 264 1.6 6.4 0.00 0.00 0.00 85 1016.8
20260502070218 11 274 1.6 6.4 0.00 0.00 0.00 85 1016.8
20260502065503 11 266 1.6 6.4 0.00 0.00 0.00 87 1016.8
20260502065218 10 260 1.6 6.4 0.00 0.00 0.00 87 1016.8
20260502064503 10 249 1.6 6.4 0.00 0.00 0.00 88 1017.0
20260502064003 10 247 1.6 6.4 0.00 0.00 0.00 88 1016.9
20260502063503 10 234 1.6 6.4 0.00 0.00 0.00 88 1016.9
20260502063004 10 236 1.6 6.4 0.00 0.00 0.00 89 1016.8
20260502062504 10 257 1.6 6.4 0.00 0.00 0.00 89 1016.9
20260502062003 10 251 1.6 6.4 0.00 0.00 0.00 89 1016.9
20260502061504 10 262 1.6 4.8 0.00 0.00 0.00 89 1016.9
20260502061003 10 273 0.0 3.2 0.00 0.00 0.00 89 1016.9
20260502060504 10 231 0.0 4.8 0.00 0.00 0.00 89 1016.9
20260502060004 10 224 1.6 4.8 0.00 0.00 0.00 90 1016.8
20260502055504 10 221 1.6 4.8 0.00 0.00 0.00 90 1016.8
20260502055217 10 221 1.6 6.4 0.00 0.00 0.00 90 1016.8
20260502054716 10 227 1.6 6.4 0.00 0.00 0.00 90 1016.8
20260502054219 10 231 1.6 8.0 0.00 0.00 0.00 90 1016.8
20260502053504 10 220 1.6 3.2 0.00 0.00 0.00 91 1016.8
20260502053004 10 216 1.6 3.2 0.00 0.00 0.00 91 1016.7
20260502052503 10 218 1.6 4.8 0.00 0.00 0.00 91 1016.7
20260502052219 10 222 1.6 4.8 0.00 0.00 0.00 91 1016.7
20260502051504 10 234 1.6 8.0 0.00 0.00 0.00 92 1016.7
20260502051004 10 244 1.6 8.0 0.00 0.00 0.00 92 1016.6
20260502050504 10 285 1.6 4.8 0.00 0.00 0.00 92 1016.7
20260502050004 10 288 0.0 4.8 0.00 0.00 0.00 92 1016.7
20260502045504 10 301 0.0 4.8 0.00 0.00 0.00 92 1016.7
20260502045004 10 255 1.6 4.8 0.00 0.00 0.00 93 1016.8
20260502044504 10 238 1.6 4.8 0.00 0.00 0.00 93 1016.7
20260502044003 10 249 0.0 4.8 0.00 0.00 0.00 93 1016.7
20260502043503 10 213 0.0 3.2 0.00 0.00 0.00 92 1016.7
20260502043003 10 215 0.0 3.2 0.00 0.00 0.00 92 1016.7
20260502042718 10 220 0.0 3.2 0.00 0.00 0.00 92 1016.7
20260502042004 10 245 1.6 3.2 0.00 0.00 0.00 92 1016.7
20260502041504 10 268 0.0 3.2 0.00 0.00 0.00 92 1016.8
20260502041003 10 272 0.0 1.6 0.00 0.00 0.00 91 1016.7
20260502040718 10 272 0.0 1.6 0.00 0.00 0.00 91 1016.7
20260502040217 10 272 0.0 1.6 0.00 0.00 0.00 91 1016.7
20260502035504 11 270 0.0 3.2 0.00 0.00 0.00 92 1016.7
20260502035003 11 261 1.6 4.8 0.00 0.00 0.00 92 1016.8
20260502034718 11 260 0.0 4.8 0.00 0.00 0.00 92 1016.8
20260502034003 11 270 0.0 3.2 0.00 0.00 0.00 92 1016.8
20260502033503 11 259 0.0 4.8 0.00 0.00 0.00 92 1016.9
20260502033003 11 238 1.6 6.4 0.00 0.00 0.00 92 1016.9
20260502032717 11 226 1.6 11.3 0.00 0.00 0.00 92 1016.9
20260502032004 11 224 1.6 11.3 0.00 0.00 0.00 92 1016.9
20260502031503 11 228 1.6 9.7 0.00 0.00 0.00 92 1017.0
20260502031004 11 227 0.0 3.2 0.00 0.00 0.00 91 1016.9
20260502030503 11 227 0.0 3.2 0.00 0.00 0.00 91 1017.0
20260502030003 11 228 0.0 1.6 0.00 0.00 0.00 90 1017.0
20260502025503 11 230 0.0 1.6 0.00 0.00 0.00 90 1017.0
20260502025004 11 231 0.0 3.2 0.00 0.00 0.00 90 1017.0
20260502024503 11 231 1.6 3.2 0.00 0.00 0.00 90 1017.1
20260502024004 11 231 1.6 3.2 0.00 0.00 0.00 90 1017.0
20260502023503 11 231 0.0 1.6 0.00 0.00 0.00 89 1017.1
20260502023003 11 231 0.0 3.2 0.00 0.00 0.00 89 1017.1
20260502022504 12 233 1.6 6.4 0.00 0.00 0.00 89 1017.1
20260502022003 12 233 1.6 6.4 0.00 0.00 0.00 89 1017.2
20260502021503 12 233 1.6 6.4 0.00 0.00 0.00 88 1017.2
20260502021003 12 231 1.6 6.4 0.00 0.00 0.00 87 1017.2
20260502020503 12 232 1.6 3.2 0.00 0.00 0.00 87 1017.3
20260502020003 12 240 1.6 3.2 0.00 0.00 0.00 86 1017.3
20260502015503 12 244 1.6 4.8 0.00 0.00 0.00 86 1017.4
20260502015218 12 242 1.6 4.8 0.00 0.00 0.00 86 1017.4
20260502014503 12 234 1.6 8.0 0.00 0.00 0.00 86 1017.4
20260502014004 12 231 1.6 6.4 0.00 0.00 0.00 86 1017.5
20260502013504 12 231 1.6 6.4 0.00 0.00 0.00 86 1017.5
20260502013004 12 235 1.6 4.8 0.00 0.00 0.00 87 1017.6
20260502012719 12 236 1.6 4.8 0.00 0.00 0.00 87 1017.5
20260502012003 13 236 1.6 4.8 0.00 0.00 0.00 86 1017.6
20260502011504 13 241 1.6 6.4 0.00 0.00 0.00 86 1017.6
20260502011004 13 238 1.6 8.0 0.00 0.00 0.00 86 1017.6
20260502010504 13 233 3.2 9.7 0.00 0.00 0.00 86 1017.7
20260502010003 13 228 3.2 9.7 0.00 0.00 0.00 86 1017.8
20260502005503 13 244 1.6 6.4 0.00 0.00 0.00 85 1017.8
20260502005004 13 260 1.6 4.8 0.00 0.00 0.00 85 1017.7
20260502004718 13 245 1.6 9.7 0.00 0.00 0.00 85 1017.7
20260502004004 13 233 1.6 9.7 0.00 0.00 0.00 86 1017.7
20260502003503 13 242 0.0 3.2 0.00 0.00 0.00 86 1017.7
20260502003217 13 242 0.0 3.2 0.00 0.00 0.00 86 1017.7
20260502002504 13 242 0.0 3.2 0.00 0.00 0.00 86 1017.8
20260502002217 13 243 1.6 3.2 0.00 0.00 0.00 86 1017.8
20260502001503 12 259 1.6 6.4 0.00 0.00 0.00 86 1018.0
20260502001004 12 269 1.6 4.8 0.00 0.00 0.00 86 1017.9
20260502000503 12 250 0.0 4.8 0.00 0.00 0.00 86 1017.9
20260502000218 12 243 0.0 4.8 0.00 0.00 0.00 86 1017.9
20260501235504 12 224 0.0 4.8 0.00 0.00 0.00 86 1018.1
20260501235004 12 227 1.6 4.8 0.00 0.00 0.00 86 1018.1
20260501234504 12 271 1.6 4.8 0.00 0.00 0.00 86 1018.0
20260501234004 12 312 1.6 4.8 0.00 0.00 0.00 86 1017.9
20260501233503 12 350 0.0 3.2 0.00 0.00 0.00 86 1018.0
20260501233004 12 339 0.0 3.2 0.00 0.00 0.00 86 1018.0
20260501232503 12 263 0.0 3.2 0.00 0.00 0.00 86 1018.0
20260501232219 12 241 0.0 4.8 0.00 0.00 0.00 86 1018.0
20260501231503 12 226 1.6 4.8 0.00 0.00 0.00 86 1018.0
20260501231219 12 226 1.6 4.8 0.00 0.00 0.00 86 1018.0
20260501230503 12 227 1.6 4.8 0.00 0.00 0.00 86 1018.0
20260501230217 12 223 1.6 4.8 0.00 0.00 0.00 86 1018.1
20260501225504 12 219 1.6 4.8 0.00 0.00 0.00 86 1018.2
20260501225219 12 223 1.6 4.8 0.00 0.00 0.00 85 1018.1
20260501224505 12 228 1.6 6.4 0.00 0.00 0.00 85 1018.1
20260501224003 12 230 1.6 6.4 0.00 0.00 0.00 85 1018.1
20260501223503 12 231 0.0 3.2 0.00 0.00 0.00 85 1018.1
20260501223004 13 223 1.6 4.8 0.00 0.00 0.00 85 1018.1
20260501222504 13 220 1.6 4.8 0.00 0.00 0.00 85 1018.1
20260501222219 13 214 0.0 3.2 0.00 0.00 0.00 84 1018.1
20260501221503 13 212 0.0 3.2 0.00 0.00 0.00 84 1018.1
20260501221217 13 220 1.6 6.4 0.00 0.00 0.00 84 1018.1
20260501220503 13 215 1.6 6.4 0.00 0.00 0.00 84 1017.9
20260501220003 13 216 0.0 6.4 0.00 0.00 0.00 83 1017.8
20260501215503 13 242 1.6 6.4 0.00 0.00 0.00 83 1017.8
20260501215003 13 275 0.0 3.2 0.00 0.00 0.00 83 1017.7
20260501214503 13 215 0.0 3.2 0.00 0.00 0.00 82 1017.7
20260501214003 13 215 1.6 4.8 0.00 0.00 0.00 82 1017.7
20260501213504 14 226 1.6 4.8 0.00 0.00 0.00 81 1017.8
20260501213004 14 242 0.0 3.2 0.00 0.00 0.00 81 1017.8
20260501212719 14 246 1.6 3.2 0.00 0.00 0.00 81 1017.8
20260501212003 14 232 1.6 6.4 0.00 0.00 0.00 80 1017.8
20260501211503 14 228 1.6 6.4 0.00 0.00 0.00 79 1017.8
20260501211003 15 222 1.6 6.4 0.00 0.00 0.00 79 1017.8
20260501210719 15 213 1.6 4.8 0.00 0.00 0.00 78 1017.8
20260501210004 15 218 1.6 6.4 0.00 0.00 0.00 77 1017.8
20260501205504 15 226 1.6 8.0 0.00 0.00 0.00 76 1017.7
20260501205004 15 229 1.6 8.0 0.00 0.00 0.00 75 1017.7
20260501204505 15 227 1.6 6.4 0.00 0.00 0.00 74 1017.7
20260501204004 15 226 1.6 6.4 0.00 0.00 0.00 73 1017.7
20260501203719 15 225 1.6 6.4 0.00 0.00 0.00 72 1017.8
20260501203003 15 207 1.6 8.0 0.00 0.00 0.00 71 1017.7
20260501202503 15 222 1.6 4.8 0.00 0.00 0.00 70 1017.6
20260501202003 16 227 1.6 9.7 0.00 0.00 0.00 70 1017.6
20260501201503 16 224 1.6 9.7 0.00 0.00 0.00 69 1017.6
20260501201004 16 232 1.6 6.4 0.00 0.00 0.00 69 1017.5
20260501200504 16 234 1.6 6.4 0.00 0.00 0.00 68 1017.5
20260501200004 16 232 1.6 9.7 0.00 0.00 0.00 68 1017.5
20260501195503 16 228 3.2 9.7 0.00 0.00 0.00 67 1017.5
20260501195004 16 226 1.6 9.7 0.00 0.00 0.00 66 1017.5
20260501194504 16 237 3.2 9.7 0.00 0.00 0.00 66 1017.5
20260501194003 17 240 3.2 9.7 0.00 0.00 0.00 66 1017.5
20260501193718 17 245 3.2 9.7 0.00 0.00 0.00 65 1017.5
20260501193003 17 259 3.2 6.4 0.00 0.00 0.00 64 1017.4
20260501192503 17 269 3.2 6.4 0.00 0.00 0.00 64 1017.3
20260501192003 17 262 3.2 11.3 0.00 0.00 0.00 63 1017.2
20260501191503 17 262 4.8 11.3 0.00 0.00 0.00 62 1017.2
20260501191003 17 263 4.8 11.3 0.00 0.00 0.00 62 1017.2
20260501190504 17 259 4.8 11.3 0.00 0.00 0.00 62 1017.2
20260501190003 18 258 4.8 11.3 0.00 0.00 0.00 62 1017.1
20260501185504 18 256 4.8 12.9 0.00 0.00 0.00 62 1017.1
20260501185004 18 252 4.8 17.7 0.00 0.00 0.00 61 1017.1
20260501184504 19 251 4.8 17.7 0.00 0.00 0.00 59 1016.9
20260501184003 20 253 4.8 16.1 0.00 0.00 0.00 58 1016.9
20260501183503 20 255 4.8 16.1 0.00 0.00 0.00 56 1016.8
20260501183003 20 252 4.8 14.5 0.00 0.00 0.00 55 1016.7
20260501182503 21 249 3.2 14.5 0.00 0.00 0.00 56 1016.6
20260501182004 21 253 4.8 12.9 0.00 0.00 0.00 55 1016.6
20260501181718 21 260 4.8 12.9 0.00 0.00 0.00 55 1016.5
20260501181004 21 257 3.2 11.3 0.00 0.00 0.00 56 1016.4
20260501180718 22 254 4.8 11.3 0.00 0.00 0.00 55 1016.4
20260501180005 22 220 6.4 19.3 0.00 0.00 0.00 53 1016.3
20260501175503 22 205 4.8 17.7 0.00 0.00 0.00 50 1016.2
20260501175003 22 204 3.2 11.3 0.00 0.00 0.00 48 1016.2
20260501174718 22 201 3.2 11.3 0.00 0.00 0.00 48 1016.1
20260501174004 22 196 4.8 12.9 0.00 0.00 0.00 47 1016.2
20260501173503 23 183 4.8 12.9 0.00 0.00 0.00 46 1016.2
20260501173219 23 183 4.8 14.5 0.00 0.00 0.00 46 1016.2
20260501172503 23 179 6.4 14.5 0.00 0.00 0.00 46 1016.2
20260501172004 23 175 6.4 12.9 0.00 0.00 0.00 46 1016.3
20260501171504 23 174 6.4 12.9 0.00 0.00 0.00 46 1016.3
20260501171003 23 175 4.8 12.9 0.00 0.00 0.00 47 1016.4
20260501170503 23 175 6.4 12.9 0.00 0.00 0.00 46 1016.3
20260501170004 23 179 4.8 9.7 0.00 0.00 0.00 46 1016.5
20260501165505 23 181 4.8 9.7 0.00 0.00 0.00 46 1016.4
20260501165004 23 181 4.8 12.9 0.00 0.00 0.00 45 1016.4
20260501164720 23 179 4.8 12.9 0.00 0.00 0.00 45 1016.5
20260501164003 23 169 3.2 9.7 0.00 0.00 0.00 44 1016.5
20260501163504 23 170 3.2 9.7 0.00 0.00 0.00 44 1016.5
20260501163003 23 176 4.8 12.9 0.00 0.00 0.00 45 1016.6
20260501162717 23 181 4.8 12.9 0.00 0.00 0.00 45 1016.6
20260501162003 23 176 6.4 12.9 0.00 0.00 0.00 44 1016.6
20260501161503 23 173 6.4 14.5 0.00 0.00 0.00 45 1016.6
20260501161004 23 173 6.4 14.5 0.00 0.00 0.00 45 1016.7
20260501160503 23 173 6.4 12.9 0.00 0.00 0.00 44 1016.8
20260501160218 23 173 6.4 12.9 0.00 0.00 0.00 43 1016.7
20260501155503 24 177 4.8 11.3 0.00 0.00 0.00 44 1016.8
20260501155004 24 176 6.4 12.9 0.00 0.00 0.00 44 1016.9
20260501154504 24 173 4.8 12.9 0.00 0.00 0.00 43 1016.9
20260501154004 24 173 4.8 12.9 0.00 0.00 0.00 42 1017.0
20260501153504 24 175 4.8 12.9 0.00 0.00 0.00 43 1017.1
20260501153004 24 179 6.4 12.9 0.00 0.00 0.00 42 1017.0
20260501152504 24 181 6.4 11.3 0.00 0.00 0.00 42 1017.1
20260501152218 24 177 4.8 11.3 0.00 0.00 0.00 42 1017.1
20260501151503 25 175 4.8 14.5 0.00 0.00 0.00 41 1017.2
20260501151003 25 178 6.4 14.5 0.00 0.00 0.00 40 1017.2
20260501150503 25 182 6.4 17.7 0.00 0.00 0.00 40 1017.2